{"data":{"norad_id":65796,"epoch":"2026-05-25T03:07:13.632960Z","epoch_age_seconds":57612,"freshness":"FRESH","line1":"1 65796U 25218F   26145.13001890  .00003268  00000+0  23039-3 0  9999","line2":"2 65796  97.4493   7.9502 0002550  85.5473 274.6045 15.05655032 36478","mean_motion":15.05655032,"eccentricity":0.000255,"inclination_deg":97.4493,"raan_deg":7.9502,"arg_perigee_deg":85.5473,"mean_anomaly_deg":274.6045,"bstar":0.00023039,"rev_number":3647,"period_min":95.639437281142,"perigee_km":547.72917257765,"apogee_km":551.2622652643,"semimajor_km":6927.632718921,"source":"CELESTRAK","updated_at":"2026-05-25T13:38:20.936698Z"}}